Kezdőlap
METAR-TAF:

METAR-TAF

Repülőterek :

Marshall County Airport

Lacon, Illinois, Amerikai Egyesült Államok

földrajzi szélesség: 41-01-09N, földrajzi hosszúság: 089-23-11W, magasság: 173 m

Jelenlegi meteorológiai megfigyelések

A jelentés 16 perccel ezelõtt készült, 10:15 UTC
Szélcsend
Hőmérséklet 9°C
Páratartalom 93%
Légköri nyomás 1015 hPa
Látótávolság: 16.1 km
Derült ég

METAR: KC75 171015Z AUTO 00000KT 10SM CLR 09/08 A2996 RMK AO2 T00900080 PWINO

Idő: 05:31 (10:31 UTC)


TAF: hiányzik

Meteorológiai megfigyelések és előrejelzések több, mint 4000 repülőtéren (METAR és TAF jelentéseket).

A térképen piros és sárga pontok jelzik az elérhető meteorológiai állomásokat.

Mozgassa az egeret a pont fölött, hogy megjelenjen az állomás neve.

Azután kattintson az időjárási megfigyelések és előrejelzések megtekintéséhez.

A térkép megváltoztatása: kattintson a fekete keresztel jelölt zöld gombra ráközelítéshez, a vonallal jelölt zöld gombra távolításhoz, vagy a zöld nyilakra a szomszédos térképek eléréséhez.


METAR-TAF: